Regional Weather Roundup
Issued by NWS

Home | Current Version | Previous Version | Text Only | Print | Product List | Glossary Off
Versions: 1 2 3 4 5 6 7 8 9 10 11 12 13 14 15 16 17 18 19 20 21 22 23 24 25 26 27 28 29 30 31 32 33 34 35 36 37 38 39 40 41 42 43 44 45 46 47 48 49 50

000
ASUS43 KDMX 301808
RWRIA

WEATHER ROUNDUP FOR IOWA
NATIONAL WEATHER SERVICE DES MOINES IA
100 PM CDT SAT APR 30 2016

NOTE: "FAIR" INDICATES FEW OR NO CLOUDS BELOW 12,000 FEET WITH NO
SIGNIFICANT WEATHER AND/OR OBSTRUCTIONS TO VISIBILITY.

* - THESE STATIONS ARE NOT NWS STATIONS...THUS NOT UNDER NWS
QUALITY CONTROL.  THEY ALSO DO NOT REPORT WEATHER SUCH
AS PRECIPITATION OR FOG.

IAZ001>003-012>014-020>022-031>034-043>046-301900-
   NORTHWEST IOWA

CITY           SKY/WX    TMP DP  RH WIND       PRES   REMARKS
CARROLL *      CLOUDY    46  45  93 E20G29    29.78F
CHEROKEE *     CLOUDY    44  44  99 NE16G29   29.82R
DENISON *      LGT RAIN  46  45  93 E24G31    29.75S
LE MARS *      CLOUDY    45  43  93 NE23G30   29.83R
ORANGE CITY *  CLOUDY    45  43  93 E18G29    29.83R
SHELDON *      HVY RAIN  45  43  93 NE43G51   29.77F
SIOUX CITY     CLOUDY    47  42  83 E16G26    29.80R
6HR MIN TEMP:  45; 6HR MAX TEMP:  47; 6HR PCP:  1.03;

SPENCER        HVY RAIN  44  42  93 NE28G36   29.89R FOG
6HR MIN TEMP:  42; 6HR MAX TEMP:  44; 6HR PCP:  0.54;

STORM LAKE *   PTSUNNY   45  43  93 NE32G43   29.77R
$$

IAZ055>058-069>071-079>083-090>094-301900-
   SOUTHWEST IOWA

CITY           SKY/WX    TMP DP  RH WIND       PRES   REMARKS
ATLANTIC *     PTSUNNY   48  46  93 E16       29.73S FOG
AUDUBON *      CLOUDY    46  45  93 E17G24    29.77R FOG
CLARINDA *       N/A    N/A N/A N/A MISG        N/A
COUNCIL BLFS * CLOUDY    46  46 100 E15       29.72S
CRESTON *      CLOUDY    48  48 100 E20       29.73R FOG
HARLAN  *      PTSUNNY   48  46  93 E17G30    29.77S FOG
LAMONI         CLOUDY    52  51  97 E8        29.70F
6HR MIN TEMP:  46; 6HR MAX TEMP:  52; 6HR PCP:  0.20;

RED OAK *      CLOUDY    50  48  93 E16       29.72R FOG
SHENANDOAH *   LGT RAIN  52  52 100 NE10      29.71R
$$

IAZ047>049-059>061-072>074-084-301900-
   CENTRAL IOWA

CITY           SKY/WX    TMP DP  RH WIND       PRES   REMARKS
AMES           LGT RAIN  47  47 100 E10       29.82F FOG
6HR MIN TEMP:  44; 6HR MAX TEMP:  46; 6HR PCP:  1.08;

ANKENY *       CLOUDY    48  48 100 E10G16    29.79S FOG
BOONE *        LGT RAIN  45  45 100 E18G26    29.81F
CHARITON *     PTSUNNY   50  50 100 E10       29.73S FOG
DES MOINES     LGT RAIN  49  45  86 E13       29.77S
6HR MIN TEMP:  46; 6HR MAX TEMP:  49; 6HR PCP:  0.59;

GRINNELL*      RAIN      46  46 100 NE22G28   29.79F
KNOXVILLE *    CLOUDY    50  48  93 E17       29.73F
MARSHALLTOWN   RAIN      47  45  93 E17G29    29.83R FOG
6HR MIN TEMP:  43; 6HR MAX TEMP:  47; 6HR PCP:  0.56;

NEWTON *       CLOUDY    48  48 100 E15G22    29.78F FOG
PELLA *        DRIZZLE   48  47  96 E13G21    29.77S
$$

IAZ004>006-015-016-023>025-035-036-301900-
   NORTH CENTRAL IOWA

CITY           SKY/WX    TMP DP  RH WIND       PRES   REMARKS
ALGONA *       RAIN      45  45 100 E17G28    29.91R
CLARION *      LGT RAIN  45  45 100 NE26G36   29.84R
ESTHERVILLE    LGT RAIN  44  42  93 NE22      29.93R FOG
6HR MIN TEMP:  42; 6HR MAX TEMP:  44; 6HR PCP:  0.33;

FORT DODGE *   CLOUDY    45  41  87 E5        29.90R
MASON CITY     LGT RAIN  44  42  93 NE22G31   29.92F FOG
6HR MIN TEMP:  43; 6HR MAX TEMP:  45; 6HR PCP:  0.22;

FOREST CITY *  RAIN      43  43 100 NE20G28   29.91F
WEBSTER CITY * RAIN      46  46 100 E15       29.85R
IOWA FALLS *   RAIN      46  45  93 NE22G32   29.84R
$$

IAZ007>011-017>019-026>030-037>042-050>054-066-301900-
   NORTHEAST IOWA

CITY           SKY/WX    TMP DP  RH WIND       PRES   REMARKS
CEDAR RAPIDS   HVY RAIN  48  46  93 E22G31    29.80F FOG
6HR MIN TEMP:  44; 6HR MAX TEMP:  48; 6HR PCP:  0.33;

CHARLES CITY * LGT RAIN  45  45 100 E22G30    29.92S
CLINTON *      LGT RAIN  49  47  93 E24G31    29.86F FOG
DECORAH *      LGT RAIN  45  43  93 NE15G23   29.94F
DUBUQUE        LGT RAIN  46  44  93 NE20G29   29.91S FOG
6HR MIN TEMP:  44; 6HR MAX TEMP:  47; 6HR PCP:  0.14;

MONTICELLO *   LGT RAIN  48  46  93 E18G25    29.85F
OELWEIN *      CLOUDY    46  46 100 NE23G33   29.88F FOG
WATERLOO       LGT RAIN  47  44  90 NE26G35   29.84F FOG
6HR MIN TEMP:  44; 6HR MAX TEMP:  47; 6HR PCP:  0.27;

$$

IAZ064-065-067-068-078-301900-
   EAST CENTRAL IOWA

CITY           SKY/WX    TMP DP  RH WIND       PRES   REMARKS
DAVENPORT      RAIN      49  46  90 E23       29.82F FOG
6HR MIN TEMP:  45; 6HR MAX TEMP:  49; 6HR PCP:  0.15;

IOWA CITY      RAIN      49  48  97 E10G21    29.82R FOG
6HR MIN TEMP:  45; 6HR MAX TEMP:  49; 6HR PCP:  0.38;

MT. PLEASANT * CLOUDY    55  55 100 E16       29.76S
MUSCATINE *    RAIN      50  48  93 E10G17    29.80S
QUAD CITIES    LGT RAIN  50  47  89 E24G31    29.81F FOG
6HR MIN TEMP:  46; 6HR MAX TEMP:  51; 6HR PCP:  0.19;

$$

IAZ062-063-075>077-085>089-095>099-301900-
   SOUTHEAST IOWA

CITY           SKY/WX    TMP DP  RH WIND       PRES   REMARKS
BURLINGTON     CLOUDY    54  50  87 E14       29.75S
6HR MIN TEMP:  47; 6HR MAX TEMP:  54; 6HR PCP:  0.51;

FAIRFIELD *    CLOUDY    52  50  93 E20G25    29.74F FOG
FORT MADISON * LGT RAIN  54  54 100 E13G20    29.74F
KEOKUK *       CLOUDY    57  55  94 E12       29.72S FOG
OSKALOOSA *    LGT RAIN  49  48  97 E20       29.77S
OTTUMWA        LGT RAIN  50  49  96 E16       29.75S FOG
6HR MIN TEMP:  45; 6HR MAX TEMP:  50; 6HR PCP:  0.40;

WASHINGTON *   CLOUDY    50  50 100 E18       29.78F FOG
$$

ABBREVIATIONS USED IN REMARKS
   TC - TEMPERATURES IN CELSIUS
  WCI - WIND CHILL INDEX
   HX - HEAT INDEX
  VSB - VISIBILITY
$$





USA.gov is the U.S. government's official web portal to all federal, state and local government web resources and services.